Location: ????????
(52.0561°N, 54.3710°E)
Time: 10:49:45
(UTC+00:00)

Daily predictions for brighter satellites

Satellite Brightness Start Highest point End
(mag) Time Altitude Azimuth Time Altitude Azimuth Time Altitude Azimuth
Cosmos 2227 Rocket 3.6 14:53:05 10° WSW 14:58:28 43° NW 15:03:53 10° NNE
Okean-O 3.3 14:54:18 10° S 14:58:41 63° WSW 15:03:07 10° NNW
Helios 1A Rocket 4.4 14:56:48 10° S 15:00:42 43° W 15:04:40 10° NNW
Cosmos 1939 Rocket 4.3 14:57:45 10° S 15:01:42 45° W 15:05:43 10° NNW
CSL-04 Debris 4.2 14:56:19 10° SSE 15:01:42 80° ENE 15:07:08 10° NNW
Lacrosse 5 rocket 1.5 14:57:46 10° WSW 15:02:01 89° NNW 15:06:30 10° ENE
USA 102 3.9 14:55:36 10° SE 15:02:04 79° ENE 15:04:51 10° NNW
Cosmos 1603 3.9 14:58:26 10° NNW 15:04:09 77° WSW 15:09:46 10° SSE
Abrixas rocket 3.2 15:03:40 10° SW 15:06:06 26° SSE 15:08:33 10° ESE
Timation 1 Rocket 4.3 15:00:44 10° SSW 15:06:41 79° ESE 15:12:41 10° NE
USA 116 3.5 15:04:48 10° NNE 15:08:05 53° ESE 15:11:41 10° S
GP-B 3.5 15:04:03 10° N 15:08:29 69° W 15:12:53 10° SSW
SKYMED 2 4.4 15:06:07 10° N 15:10:24 58° WNW 15:14:40 10° SSW
Cosmos 1867 3.6 15:05:14 10° NW 15:10:44 77° NE 15:16:12 10° SE
CSL-04 Rocket 3.8 15:06:11 10° SSE 15:11:37 89° E 15:17:10 10° NNW
Cosmos 1898 Rocket 3.5 15:06:53 10° S 15:11:58 61° ESE 15:17:06 10° NNE
Cosmos 1437 2.5 15:09:58 10° NNW 15:13:00 88° E 15:15:59 10° SSE
USA 229 DEB 4.3 15:08:16 10° WSW 15:14:47 59° NW 15:21:45 10° NE
USA 229 4.3 15:08:22 10° WSW 15:14:53 59° NW 15:21:51 10° NE
YAOGAN 1 3.3 15:10:51 10° S 15:15:07 59° W 15:19:26 10° NNW
NOSS 3-2 (C) 4.3 15:09:14 10° NW 15:16:07 52° NNE 15:23:51 11° ESE
Okean 2 3.9 15:16:52 10° NNW 15:21:02 66° W 15:25:08 10° S
Cosmos 2233 Rocket 4.1 15:15:50 10° S 15:22:05 87° W 15:28:18 10° N
Cosmos 1536 Rocket 4.4 15:18:35 10° N 15:22:35 32° ENE 15:26:35 10° SE
HJ-1C 3.6 15:21:38 10° S 15:24:54 74° WSW 15:28:13 10° NNW
Meteor 2-11 Rocket 4.5 15:19:32 10° S 15:25:41 83° E 15:31:53 10° NNE
NOSS 3-1 (A) 4.1 15:21:16 10° WSW 15:26:55 59° NW 15:33:41 10° NE
Nadezhda 4 Rocket 4.3 15:22:29 10° N 15:28:21 44° ENE 15:34:09 10° SE
Cosmos 807 4.3 15:25:57 10° S 15:29:06 75° E 15:32:53 10° NNE
Cosmos 1626 4.2 15:31:50 10° NE 15:33:25 12° ENE 15:34:13 12° ENE
Cosmos 1782 Rocket 3.6 15:31:19 10° S 15:35:43 88° W 15:40:13 10° N
Cosmos 2082 Rocket 4.2 15:33:25 10° NNW 15:36:47 16° NNE 15:40:09 10° ENE
Cosmos 2151 Rocket 4.4 15:33:07 10° SSE 15:37:02 31° E 15:41:00 10° NNE
Cosmos 1025 Rocket 3.2 15:32:57 10° N 15:37:15 53° ENE 15:41:33 10° SSE
NOSS 8 (H) 4.1 15:36:34 10° SSW 15:39:37 57° SE 15:42:38 10° NE
Cosmos 1975 3.4 15:35:36 10° SSW 15:39:39 64° WNW 15:43:44 10° N
CZ-4 R/B 3.6 15:35:59 10° SSW 15:39:41 29° W 15:43:23 10° NNW
NOSS 8 (E) 4.1 15:36:36 10° SW 15:39:44 86° NW 15:42:48 10° NE
Cosmos 1937 Rocket 3.4 15:36:37 10° SSW 15:41:52 78° ESE 15:47:06 10° NNE
CREW DRAGON DEMO-1 DEB 2.7 15:39:20 10° W 15:42:22 85° S 15:44:13 21° E
NOSS 2-2 (E) 3.6 15:39:29 10° SSW 15:42:48 39° SE 15:46:35 10° NE
MOS 1 Rocket 3.1 15:39:37 10° NNE 15:44:12 77° ESE 15:48:33 10° S
BREEZE-M DEB (TANK) 3.6 15:43:59 10° W 15:46:47 38° SSW 15:52:03 14° SE
USA 186 1.6 15:46:05 10° SSE 15:49:12 86° ENE 15:52:28 10° NNW
NOSS 2-2 (D) 3.6 15:47:56 10° SSW 15:51:13 37° SE 15:54:55 10° ENE
In-Cosmos 22 4.0 15:46:16 10° N 15:51:35 77° ENE 15:56:55 10° SSE
OBJECT-B 1.3 15:55:00 26° ESE 15:56:21 41° ENE 15:59:26 10° N
Cosmos 1975 Rocket 4.3 15:52:21 10° NNW 15:56:29 44° W 16:00:35 10° SSW
CENTAUR R/B 3.2 15:49:56 10° NW 15:57:40 69° NE 16:04:11 19° ESE
Cosmos 1674 3.1 15:54:33 10° N 15:58:14 41° ENE 16:00:03 25° SE
BREEZE-M R/B 4.5 15:49:12 10° SW 15:59:09 38° SSE 16:00:54 24° ESE
ARGOS 3.7 15:54:42 10° S 16:00:00 60° W 16:05:20 10° NNW
CZ-2C R/B 2.8 15:54:48 10° NNE 16:00:15 56° E 16:05:44 10° S
H-2A R/B 3.1 15:55:53 10° S 16:00:37 45° W 16:05:31 10° NNW
ATLAS 3B R/B 3.5 15:57:10 10° NW 16:03:30 40° NNE 16:08:20 18° E
MOS 1 4.3 15:58:40 10° SSE 16:04:23 88° ENE 16:10:08 10° NNW
FREGAT/IRIS 2.2 16:03:38 26° S 16:04:55 82° WSW 16:07:32 10° NNW
USA 238 DEB 3.8 15:57:58 10° NW 16:05:10 88° NE 16:10:44 20° SE
USA 238 3.8 15:58:04 10° NW 16:05:16 88° NE 16:10:49 20° SE
Resurs 01 Rocket 2.2 16:04:07 25° ESE 16:06:07 39° ENE 16:10:16 10° N
Cosmos 1048 Rocket 4.0 16:04:23 10° NNW 16:09:43 83° ENE 16:13:37 19° SSE
Cosmos 1707 3.6 16:06:19 10° NNW 16:10:04 50° W 16:13:47 10° S
Lacrosse 4 Rocket 3.6 16:09:13 10° N 16:11:31 14° NNE 16:13:18 11° NE
Cosmos 1844 4.3 16:06:45 10° SSE 16:11:42 32° ESE 16:16:38 10° NE
Sich 1 Rocket 4.1 16:08:54 10° SSW 16:13:22 63° WNW 16:17:54 10° N
SJ-6B 2.9 16:10:32 13° S 16:13:51 71° WSW 16:17:38 10° NNW
KORONAS-FOTON 3.8 16:11:29 10° N 16:15:24 61° ENE 16:17:03 32° SE
Cosmos 2263 Rocket 2.8 16:11:14 10° SW 16:16:44 59° NW 16:22:18 10° NNE
ATLAS CENTAUR R/B 3.9 16:18:08 10° WNW 16:20:35 16° NNW 16:23:01 10° NNE
Cosmos 1766 4.2 16:23:00 30° ENE 16:23:00 30° ENE 16:25:55 10° NNE
Cosmos 1464 Rocket 4.1 16:16:32 10° SSW 16:22:40 80° W 16:28:53 10° N
ARIANE 5 R/B 3.3 16:22:36 32° E 16:23:26 35° ENE 16:27:23 10° N
Cosmos 1844 Rocket 2.9 16:18:42 10° S 16:23:59 46° ESE 16:29:18 10° NE
IGS 5A 4.4 16:24:13 29° ENE 16:24:35 30° ENE 16:28:13 10° N
SWAS 4.4 16:20:19 10° NNW 16:24:39 75° ENE 16:26:10 39° SE
Cosmos 1092 Rocket 3.9 16:20:36 10° N 16:26:45 70° ENE 16:30:55 22° SSE
Spot 2 Rocket 4.2 16:27:44 31° E 16:28:59 36° ENE 16:33:34 10° N
Cosmos 2195 Rocket 4.5 16:23:56 10° N 16:30:14 67° ENE 16:33:57 25° SSE
SJ 16-02 4.1 16:27:02 10° W 16:30:17 20° NW 16:33:33 10° N
NOSS 3-2 (A) 4.2 16:26:09 10° NW 16:33:29 69° SW 16:39:07 22° SSE
Okean 2 Rocket 3.6 16:29:16 10° SSW 16:33:43 60° WNW 16:38:11 10° N
Cosmos 2026 Rocket 4.1 16:28:08 10° N 16:34:26 63° ENE 16:37:48 29° SSE
Meteor 1-15 Rocket 4.1 16:29:16 10° S 16:34:50 69° E 16:40:33 10° NNE
NOSS 2-2 (C) 3.1 16:32:08 10° SW 16:35:41 90° NW 16:39:50 10° NE
Ariane Rocket 4.0 16:30:51 10° S 16:35:43 46° W 16:40:37 10° NNW
Meteor 2-13 Rocket 4.4 16:30:29 10° N 16:36:42 84° ENE 16:40:52 22° SSE
ISS -2.0 16:33:45 10° SW 16:35:14 21° SSW 16:35:14 21° SSW
Okean 1 Rocket 3.1 16:37:06 41° SSE 16:38:23 58° E 16:42:49 10° NNE
Abrixas rocket 3.5 16:38:20 10° WSW 16:39:57 26° SW 16:39:57 26° SW
Lacrosse 5 rocket 2.4 16:37:21 10° W 16:41:34 45° N 16:43:59 23° NE
Cosmos 1833 Rocket 3.4 16:37:28 10° NNW 16:42:46 39° NE 16:44:24 32° E
Cosmos 494 Rocket 4.0 16:37:54 10° NNW 16:43:11 82° WSW 16:45:32 34° SSE
GRACE-FO 1 4.5 16:40:35 10° N 16:44:21 87° E 16:44:55 63° S
GRACE-FO 2 4.5 16:40:58 10° N 16:44:43 87° E 16:45:17 63° S
Cosmos 2298 Rocket 4.0 16:39:40 10° SSW 16:45:01 88° ESE 16:50:24 10° NNE
SPOT 3 Rocket 3.6 16:42:19 26° S 16:45:20 77° WSW 16:50:31 10° NNW
Resurs 1-3 3.9 16:43:10 27° S 16:45:26 67° WSW 16:49:51 10° NNW
Cosmos 1428 Rocket 4.4 16:40:37 10° N 16:46:56 72° ENE 16:49:49 34° SSE
CZ-2C R/B 3.5 16:43:36 10° NNE 16:48:03 65° ESE 16:49:03 49° SSE
BREEZE-M DEB (TANK) 4.4 16:46:30 10° SW 16:50:41 60° SE 17:07:32 10° ENE
USA 234 3.3 16:45:03 10° ENE 16:51:26 53° SE 16:57:49 10° SW
Cosmos 2279 Rocket 4.4 16:51:44 39° ESE 16:52:37 41° E 16:58:26 10° NNE
Terra 3.1 17:01:26 26° NE 17:01:26 26° NE 17:05:05 10° N
Meteor 2-5 Rocket 3.8 16:57:25 10° NNW 17:03:02 76° W 17:05:36 34° S
Cosmos 1892 Rocket 3.5 17:01:40 10° N 17:05:46 65° NE 17:05:46 65° NE
NOSS 3-2 (C) 4.2 17:00:12 10° NW 17:07:31 67° SW 17:11:18 35° SSE
Exosat Rocket 3.4 17:03:11 10° SSW 17:08:39 81° ESE 17:13:40 10° NNE
Cosmos 1626 2.4 17:05:29 10° NNW 17:08:46 64° NW 17:08:46 64° NW
CARTOSAT-1 4.4 17:15:16 40° NE 17:15:16 40° NE 17:18:35 10° N
Meteor 1-22 Rocket 4.2 17:18:34 48° S 17:20:20 81° E 17:26:25 10° NNE
SPOT 5 3.4 17:21:41 50° ENE 17:21:41 50° ENE 17:26:42 10° N
Cosmos 2082 Rocket 2.7 17:17:01 10° NNW 17:22:24 44° NE 17:22:53 43° ENE
Cosmos 1805 4.2 17:25:29 42° W 17:25:59 45° WNW 17:29:46 10° N
Cosmos 1125 Rocket 3.7 17:21:06 10° SSW 17:26:25 71° WNW 17:31:45 10° NNE
OBJECT-B 3.5 17:28:11 14° WSW 17:28:55 15° W 17:30:57 10° NW
COSMOS 2406 3.0 17:23:58 10° NNW 17:29:41 89° SW 17:30:13 75° SSE
Meteor 1-24 Rocket 4.0 17:25:04 10° NNW 17:30:26 60° W 17:31:59 44° SSW
Okean 1-7 Rocket 3.8 17:27:47 10° N 17:31:48 68° N 17:31:48 68° N
Cosmos 2266 Rocket 4.0 17:30:23 10° N 17:36:23 60° ENE 17:36:26 59° ENE
ERS-1 Rocket 3.0 17:37:24 67° NNE 17:37:24 67° NNE 17:42:00 10° NNW
ATLAS 2AS CENTAUR R/B 3.0 17:37:35 55° SE 17:37:48 55° ESE 17:45:25 10° NE
CZ-2C R/B 4.5 17:35:33 10° N 17:40:17 31° WNW 17:45:04 10° WSW
Cosmos 1655 Rocket 3.8 17:35:45 10° N 17:42:03 81° E 17:42:37 73° SE
Cosmos 2098 Rocket 4.0 17:34:42 10° N 17:42:04 79° ENE 17:42:57 68° SE
Resurs 01 Rocket 3.2 17:41:42 27° WSW 17:42:41 30° W 17:46:37 10° NNW
Meteor 1-21 Rocket 4.3 17:38:53 10° N 17:44:17 63° ENE 17:44:17 63° ENE
Landsat 7 4.3 17:46:54 53° W 17:46:54 53° W 17:51:35 10° NNW
CENTAUR R/B 3.8 17:40:48 10° NW 17:48:25 48° WSW 17:51:21 36° SSW
Lacrosse 4 Rocket 2.9 17:47:07 10° NNW 17:49:36 33° N 17:49:36 33° N
Cosmos 909 Rocket 3.9 17:45:55 10° NW 17:52:39 75° NE 17:53:07 72° E
SPOT 1/Viking Rocket 3.8 17:53:08 60° WSW 17:53:10 60° WSW 17:58:19 10° NNW
ATLAS 3B R/B 2.5 17:48:01 10° NW 17:54:52 85° SW 17:55:34 74° SSE
Cosmos 2278 Rocket 3.8 17:58:55 23° NE 17:58:55 23° NE 18:01:01 10° NE
Cosmos 1844 4.2 17:50:00 10° SW 17:55:36 56° NW 18:01:10 10° NNE
ARIANE 5 R/B 4.1 18:00:10 32° W 18:00:10 32° W 18:03:51 10° NNW
ATLAS CENTAUR R/B 4.0 17:59:18 10° NNW 18:00:54 12° N 18:01:22 12° NNE
Spot 2 Rocket 4.4 18:07:55 40° W 18:07:55 40° W 18:12:41 10° NNW
Cosmos 1844 Rocket 3.9 18:02:43 10° WSW 18:07:59 41° NW 18:13:17 10° NNE
Lacrosse 5 rocket 3.2 18:16:58 10° WNW 18:19:36 32° NW 18:19:36 32° NW
Cosmos 1833 Rocket 3.5 18:21:26 10° NW 18:26:05 46° W 18:26:05 46° W
Cosmos 2251 Rocket 4.4 18:28:20 10° NNW 18:32:20 47° WNW 18:32:20 47° WNW
USA 234 3.3 18:28:09 10° ENE 18:34:41 76° NNW 18:41:14 10° WSW
Terra 3.3 18:40:20 35° NW 18:40:20 35° NW 18:43:18 10° NNW
MOS 1-B Rocket 4.5 18:33:22 10° NNE 18:39:16 65° ENE 18:39:16 65° ENE
NOSS 3-4 (A) 4.1 19:06:43 52° N 19:06:43 52° N 19:12:01 10° NE
NOSS 3-4 (C) 4.1 19:06:53 51° N 19:06:53 51° N 19:12:07 10° NE
Cosmos 2082 Rocket 3.6 19:01:15 10° NW 19:04:43 32° WNW 19:04:43 32° WNW
CZ-4C R/B 4.2 19:31:41 22° NE 19:31:41 22° NE 19:33:49 10° NE
ATLAS 2AS CENTAUR R/B 3.4 19:24:47 30° WSW 19:28:56 60° NW 19:36:37 10° NE
Cosmos 2369 Rocket 4.5 19:35:44 15° NE 19:35:44 15° NE 19:36:52 10° NE
Cosmos 2278 Rocket 3.5 19:40:44 36° NNW 19:40:44 36° NNW 19:45:07 10° NNE
ATLAS 3B R/B 4.4 19:39:30 10° WNW 19:42:49 21° W 19:42:49 21° W
NOSS 3-1 (C) 4.3 19:46:55 10° NW 19:53:52 59° NE 19:54:08 59° NE
Cosmos 2227 Rocket 4.5 20:13:18 10° NNW 20:17:19 19° NNE 20:20:03 14° ENE
USA 234 3.9 20:11:03 10° ENE 20:19:22 43° NW 20:23:50 10° WNW
SL-16 R/B 3.7 20:42:07 35° ENE 20:42:14 35° ENE 20:47:44 10° N
USA 229 DEB 4.2 20:44:29 10° NW 20:49:59 56° NW 20:49:59 56° NW
USA 229 4.2 20:44:35 10° NW 20:50:06 57° NNW 20:50:06 57° NNW
Cosmos 1943 Rocket 3.5 20:54:15 36° N 20:54:15 36° N 20:57:41 10° NNE
COSMOS 2455 4.1 20:52:44 37° NNW 20:52:44 37° NNW 20:57:54 10° NNE
CZ-2D R/B 4.2 20:55:28 10° NE 20:58:07 20° ENE 20:58:07 20° ENE
NOSS 3-1 (A) 4.1 20:56:34 10° NW 21:02:58 71° NNW 21:02:58 71° NNW
Cosmos 2297 Rocket 3.6 21:00:04 10° NNW 21:05:13 34° NE 21:05:22 34° NE
Resurs 1-4 Rocket 3.9 21:09:41 10° NE 21:12:46 25° ENE 21:12:46 25° ENE
Cosmos 2369 Rocket 3.3 21:17:31 40° N 21:17:31 40° N 21:21:20 10° NNE
CZ-4C R/B 3.4 21:16:50 41° NNW 21:16:50 41° NNW 21:22:55 10° NE
ATLAS 2AS CENTAUR R/B 4.2 21:14:14 10° WNW 21:21:26 36° N 21:28:20 10° ENE
SL-8 Rocket 4.4 21:37:00 10° N 21:43:01 57° ENE 21:43:01 57° ENE
Cosmos 2218 Rocket 4.4 21:47:57 10° N 21:54:16 58° ENE 21:54:37 58° E
Cosmos 2366 rocket 4.4 21:50:46 10° N 21:56:58 58° ENE 21:57:18 57° E
USA 234 3.3 21:53:39 10° ESE 22:00:10 75° NNE 22:03:10 35° WNW
Cosmos 2227 Rocket 2.7 21:56:56 10° NNW 22:01:46 55° NNE 22:01:46 55° NNE
Lacrosse 5 4.2 22:14:23 14° ESE 22:14:23 14° ESE 22:16:07 10° E
Cosmos 2219 4.1 22:10:24 10° NNW 22:14:03 41° NNW 22:14:03 41° NNW
ADEOS II 3.1 22:11:38 10° NNE 22:16:33 38° E 22:16:36 38° E
CZ-3B R/B 4.4 22:19:30 16° E 22:19:30 16° E 22:21:18 10° ENE
Cosmos 2181 Rocket 4.0 22:18:15 71° E 22:18:17 71° E 22:24:27 10° NNE
CZ-4B R/B 4.4 22:16:20 10° NNE 22:20:56 43° E 22:20:56 43° E
SL-16 R/B 3.1 22:27:14 44° NW 22:27:14 44° NW 22:31:43 10° NNW
Cosmos 1959 Rocket 4.4 22:20:08 10° N 22:26:03 83° N 22:26:03 83° N
Cosmos 2341 Rocket 4.4 22:23:02 10° NNW 22:28:12 52° NW 22:28:12 52° NW
SL-08 R/B 4.3 22:29:15 42° E 22:29:40 43° ENE 22:34:04 10° N
Cosmos 1633 Rocket 4.1 22:31:18 10° N 22:34:55 43° NE 22:34:55 43° NE
Cosmos 1943 Rocket 4.1 22:35:46 17° NW 22:37:09 18° NNW 22:40:58 10° NNE
ARIANE 5 R/B 4.0 22:35:12 10° NNE 22:39:44 31° E 22:41:12 26° SE
CZ-2D R/B 2.3 22:34:47 10° NNE 22:39:26 62° NNW 22:39:26 62° NNW
Cosmos 1666 Rocket 4.5 22:36:08 10° N 22:39:36 48° NNE 22:39:36 48° NNE
IRS-1D 3.8 22:35:22 10° NNE 22:40:43 65° ESE 22:40:51 65° ESE
ATLAS 5 CENTAUR R/B 2.3 22:44:53 53° NNE 22:44:53 53° NNE 22:48:41 10° NE
AQUA 4.2 22:40:28 10° NNE 22:44:22 59° N 22:44:22 59° N
NPP 3.7 22:40:28 10° NNE 22:45:29 70° NW 22:45:29 70° NW
Cosmos 1151 Rocket 4.4 22:46:55 33° E 22:47:13 33° E 22:51:08 10° NNE
Cosmos 1606 4.2 22:49:10 35° NE 22:49:10 35° NE 22:51:39 10° NNE
SL-19 R/B 4.4 22:49:20 60° NW 22:49:20 60° NW 22:54:09 10° NNW
Cosmos 2297 Rocket 3.3 22:44:02 10° NW 22:47:05 32° NW 22:47:05 32° NW
CBERS-1 4.0 22:48:00 10° NNE 22:53:09 76° ESE 22:53:15 75° ESE
Cosmos 2082 3.7 22:48:05 10° NNW 22:53:49 81° ENE 22:57:45 21° SE
Resurs 1-4 Rocket 2.5 22:49:12 10° N 22:53:50 51° NW 22:53:50 51° NW
Cosmos 2369 Rocket 4.1 22:59:18 16° NW 23:01:02 18° NNW 23:04:56 10° NNE
Genesis I 4.3 23:03:13 41° NNE 23:03:13 41° NNE 23:05:55 10° NE
Meteor 1-25 Rocket 4.4 22:59:15 10° N 23:05:06 72° ENE 23:08:37 25° SSE
Gbstr 26 Del rocket 4.4 23:02:21 39° W 23:05:50 87° S 23:13:32 10° E
USA 267 3.4 22:59:33 10° ENE 23:06:02 59° SE 23:07:37 47° S
Cosmos 1933 4.0 23:06:33 53° E 23:06:33 53° E 23:10:25 10° NNE
CZ-4C R/B 4.1 23:02:00 12° NW 23:06:49 31° N 23:13:06 10° ENE
NOSS 2-2 (E) 4.3 23:03:08 10° NW 23:08:31 85° SW 23:16:04 10° SE
Cosmos 1697 Rocket 3.3 23:09:02 37° SSE 23:10:43 48° ESE 23:16:07 10° NE
IRS-P3 4.2 23:06:19 10° NNE 23:11:42 74° ESE 23:12:56 53° S
SJ 16-02 3.5 23:10:09 10° N 23:13:55 27° NE 23:17:40 10° ESE
USA 306 4.5 23:14:26 26° SE 23:14:26 26° SE 23:17:41 10° E
ATLAS 2AS CENTAUR R/B 4.1 23:07:02 10° NW 23:14:19 41° NNE 23:21:10 10° E
ASTEX 1 4.3 23:09:38 10° NNE 23:14:28 46° E 23:17:24 22° SSE
Cosmos 1980 Rocket 3.7 23:11:43 18° SSE 23:14:58 31° ESE 23:19:52 10° NE
NOSS 2-2 (D) 4.3 23:11:39 10° NW 23:16:56 87° SW 23:24:20 10° SE
Cosmos 2263 Rocket 3.3 23:14:53 10° NNW 23:20:18 44° NE 23:25:42 10° ESE
X-37B 3.5 23:24:37 11° ESE 23:24:37 11° ESE 23:24:52 10° ESE
Cosmos 1821 Rocket 3.9 23:17:24 10° NNW 23:23:46 82° W 23:27:22 27° S
H-2A R/B 3.3 23:19:56 10° SE 23:24:03 42° ENE 23:28:17 10° N
ATLAS CENTAUR R/B 4.2 23:09:12 10° W 23:25:45 64° N 23:31:37 10° ENE
Cosmos 389 Rocket 4.4 23:24:34 21° SE 23:25:48 27° E 23:28:51 10° NE
Cosmos 1818 3.6 23:24:54 56° W 23:25:50 67° NW 23:31:19 10° NE
SL-8 R/B 3.9 23:30:02 52° S 23:30:02 52° S 23:34:22 10° ESE
SL-24 R/B 4.2 23:30:16 46° S 23:31:40 80° WSW 23:37:02 10° NNW
ERS-2 4.3 23:29:17 10° ESE 23:32:25 27° ENE 23:35:35 10° N
Cosmos 1602 3.8 23:28:37 10° N 23:32:28 73° ENE 23:33:00 60° SE
Spot 4 Rocket 4.4 23:30:43 10° NNE 23:35:51 62° ESE 23:38:46 25° S
Cosmos 1934 Rocket 3.9 23:33:00 10° N 23:39:05 81° ENE 23:45:10 10° SSE
Cosmos 1470 Rocket 3.4 23:35:52 10° NNW 23:40:19 75° W 23:41:16 53° SSW
USA 307 3.8 23:40:15 35° SSE 23:40:48 36° SE 23:44:43 10° ENE
ADEOS Rocket 4.2 23:37:03 10° SE 23:43:23 46° ENE 23:49:09 10° N
USA 234 3.3 23:37:03 10° SE 23:43:25 54° SW 23:49:49 10° WNW
USA 308 3.8 23:43:03 35° SSE 23:43:42 37° SE 23:47:40 10° ENE
Cosmos 2227 Rocket 3.8 23:41:31 10° NW 23:43:29 19° WNW 23:43:29 19° WNW
Cosmos 1777 Rocket 4.0 23:43:16 10° NNW 23:48:24 56° WSW 23:52:44 14° S
Cosmos 1500 4.2 23:46:05 10° N 23:49:50 47° ENE 23:53:32 10° SSE
Cosmos 1656 3.8 23:49:11 41° WSW 23:50:50 57° NW 23:56:19 10° NNE
Nadezhda 3 Rocket 3.9 23:49:09 31° SSW 23:52:16 71° WNW 23:58:27 10° N
Meteor 1-20 Rocket 4.3 23:47:15 10° NNW 23:52:33 51° W 23:54:39 33° SSW
Cosmos 1238 Rocket 4.0 23:45:57 10° N 23:52:40 90° ENE 23:58:59 10° S
Landsat 5 3.8 23:48:34 10° SSE 23:53:06 77° ENE 23:57:35 10° NNW
